CW6451 Weather Reports


time (UTC)temp
F
wind
direction
speed
knots
gust
knots
rain 1hr
in
rain 24hr
in
rain mn
in
humidity
%
barometer
mb
20260507104539 49 21 3.5 10.4 0.02 0.52 0.31 99 1008.7
20260507103038 49 344 3.5 10.4 0.02 0.51 0.30 99 1007.6
20260507101538 50 14 4.3 9.6 0.03 0.51 0.30 99 1007.7
20260507100048 49 13 5.2 12.2 0.05 0.51 0.30 99 1007.8
20260507094542 49 350 3.5 12.2 0.06 0.50 0.29 99 1007.7
20260507093046 49 14 4.3 10.4 0.07 0.49 0.28 99 1007.6
20260507091538 50 42 6.1 11.3 0.06 0.48 0.27 99 1007.6
20260507090037 51 42 3.5 10.4 0.10 0.46 0.25 99 1007.3
20260507084537 52 360 2.6 13.0 0.15 0.44 0.23 100 1007.4
20260507083046 52 344 2.6 7.0 0.21 0.42 0.21 100 1007.5
20260507081543 53 21 2.6 10.4 0.20 0.41 0.20 100 1007.1
20260507080041 53 338 5.2 9.6 0.15 0.36 0.15 100 1007.4
20260507074539 52 298 2.6 6.1 0.08 0.29 0.08 100 1007.6
20260507073039 53 290 0.9 3.5 0.00 0.21 0.00 100 1006.7
20260507071600 52 0 0.0 0.9 0.00 0.21 0.00 100 1006.3
20260507070039 52 0 0.0 1.7 0.00 0.21 0.00 100 1006.4
20260507064537 52 172 0.9 3.5 0.00 0.21 0.00 100 1006.6
20260507063045 52 0 0.0 0.0 0.00 0.21 0.00 100 1006.6
20260507061540 52 172 0.0 1.7 0.00 0.21 0.00 100 1006.6
20260507060039 52 225 0.0 1.7 0.00 0.21 0.00 100 1006.9
20260507054538 51 223 0.9 3.5 0.00 0.21 0.00 100 1007.2
20260507053111 51 229 0.9 4.3 0.00 0.21 0.00 99 1007.3
20260507051545 51 207 1.7 7.8 0.00 0.21 0.00 99 1007.4
20260507050044 51 171 1.7 7.0 0.00 0.21 0.00 99 1007.7
20260507044547 51 190 2.6 7.8 0.00 0.21 0.00 99 1007.6
20260507043038 52 186 2.6 5.2 0.00 0.21 0.00 99 1007.7
20260507041537 52 234 2.6 6.1 0.00 0.21 0.00 99 1007.6
20260507040036 52 194 2.6 8.7 0.00 0.21 0.00 99 1007.9
20260507034543 52 192 2.6 9.6 0.00 0.21 0.21 99 1007.9
20260507033044 52 179 2.6 7.8 0.00 0.21 0.21 99 1008.0
20260507031538 52 236 2.6 7.0 0.00 0.21 0.21 99 1008.2
20260507030039 52 186 2.6 9.6 0.00 0.21 0.21 99 1008.1
20260507024540 52 223 4.3 11.3 0.00 0.21 0.21 99 1008.2
20260507023044 52 210 4.3 11.3 0.00 0.21 0.21 99 1008.1
20260507021544 52 230 3.5 11.3 0.00 0.21 0.21 99 1008.3
20260507020041 52 182 4.3 13.0 0.00 0.21 0.21 99 1008.2
20260507014547 52 177 3.5 9.6 0.00 0.21 0.21 99 1008.5
20260507013037 53 223 4.3 13.0 0.00 0.21 0.21 99 1008.6
20260507011540 53 192 3.5 12.2 0.00 0.21 0.21 99 1008.7
20260507010038 53 229 6.1 11.3 0.00 0.21 0.21 99 1008.8
20260507004545 53 207 4.3 15.6 0.00 0.21 0.21 99 1008.9
20260507003039 53 235 5.2 12.2 0.00 0.21 0.21 99 1008.8
20260507001547 53 192 4.3 9.6 0.01 0.21 0.21 99 1008.8
20260507000038 52 234 2.6 10.4 0.01 0.21 0.21 99 1008.8
20260506234537 52 256 4.3 14.8 0.01 0.21 0.21 98 1008.7
20260506233037 53 213 2.6 10.4 0.03 0.21 0.21 98 1008.6
20260506231542 53 193 4.3 13.0 0.06 0.20 0.20 98 1008.5
20260506230041 53 213 6.1 13.0 0.09 0.20 0.20 98 1008.4
20260506224539 54 200 5.2 13.0 0.12 0.20 0.20 98 1008.4
20260506223108 54 195 5.2 16.5 0.11 0.18 0.18 98 1008.5
20260506221538 53 191 6.1 16.5 0.09 0.14 0.14 98 1008.7
20260506220040 53 216 6.1 12.2 0.06 0.11 0.11 97 1009.0
20260506214550 53 182 4.3 12.2 0.04 0.08 0.08 97 1009.2
20260506213040 53 183 4.3 13.0 0.04 0.07 0.07 96 1009.1
20260506211547 54 221 5.2 12.2 0.03 0.05 0.05 96 1009.2
20260506210037 54 178 5.2 10.4 0.03 0.05 0.05 96 1009.3
20260506204543 54 200 6.1 14.8 0.03 0.04 0.04 95 1009.4
20260506203045 55 204 6.1 11.3 0.03 0.03 0.03 95 1009.5
20260506201545 55 194 5.2 13.0 0.02 0.02 0.02 94 1009.5
20260506200047 55 190 4.3 18.2 0.02 0.02 0.02 95 1009.7
20260506194542 55 128 5.2 12.2 0.01 0.01 0.01 93 1009.8
20260506193039 55 183 6.1 13.0 0.00 0.00 0.00 91 1010.1
20260506191538 56 172 7.0 16.5 0.00 0.00 0.00 88 1010.3
20260506190044 56 196 5.2 12.2 0.00 0.00 0.00 88 1010.4
20260506184542 57 227 4.3 16.5 0.00 0.00 0.00 87 1010.6
20260506183039 57 198 7.0 19.1 0.00 0.00 0.00 87 1010.6
20260506181539 58 205 7.0 16.5 0.00 0.00 0.00 86 1010.7
20260506180046 58 183 7.0 14.8 0.00 0.00 0.00 86 1011.1
20260506174537 58 218 5.2 13.9 0.00 0.00 0.00 87 1011.4
20260506173041 57 237 5.2 18.2 0.00 0.00 0.00 86 1011.7
20260506171545 58 190 7.8 19.1 0.00 0.00 0.00 84 1011.6
20260506170041 59 203 6.1 16.5 0.00 0.00 0.00 84 1011.6
20260506164538 60 240 7.0 13.0 0.00 0.00 0.00 83 1011.9
20260506163039 58 236 6.1 13.0 0.00 0.00 0.00 85 1012.0
20260506161537 58 246 7.8 16.5 0.00 0.00 0.00 86 1012.3
20260506160038 58 200 5.2 13.9 0.00 0.00 0.00 85 1012.5
20260506154542 61 234 4.3 10.4 0.00 0.00 0.00 82 1012.8
20260506153038 61 213 4.3 13.0 0.00 0.00 0.00 83 1012.9
20260506151538 61 206 5.2 12.2 0.00 0.00 0.00 83 1012.8
20260506150038 60 186 4.3 12.2 0.00 0.00 0.00 84 1013.2
20260506144551 59 111 4.3 10.4 0.00 0.00 0.00 86 1012.8
20260506143044 58 202 5.2 13.0 0.00 0.00 0.00 87 1013.0
20260506141538 58 181 6.1 11.3 0.00 0.00 0.00 86 1012.8
20260506140038 58 225 5.2 16.5 0.00 0.00 0.00 87 1012.5
20260506134545 57 182 6.1 20.0 0.00 0.00 0.00 87 1012.8
20260506133042 57 244 7.0 17.4 0.00 0.00 0.00 88 1013.1
20260506131544 57 188 4.3 13.9 0.00 0.00 0.00 88 1013.0
20260506130044 57 232 5.2 13.0 0.00 0.00 0.00 87 1013.0
20260506124540 57 191 4.3 11.3 0.00 0.00 0.00 88 1013.0
20260506123039 57 207 4.3 9.6 0.00 0.00 0.00 89 1012.9
20260506121538 56 181 2.6 7.8 0.00 0.00 0.00 90 1013.0
20260506120038 56 229 3.5 7.8 0.00 0.00 0.00 92 1012.9
20260506114539 55 227 3.5 8.7 0.00 0.00 0.00 93 1013.1
20260506113038 54 196 3.5 7.0 0.00 0.00 0.00 94 1013.2
20260506111537 54 192 2.6 7.8 0.00 0.00 0.00 94 1013.2
20260506110039 54 194 4.3 11.3 0.00 0.00 0.00 94 1013.1